सभी
Enua Airport (Atiu (Enua Manu)) AIU मौसम
|
Atiu (Enua Manu) (AIU / NCAT)
स्वच्छ आकाश
शांत हवाएं |
|
26 °C |
There is no TAF data available at AIU or any nearby airports.
Recent AIU METAR history
| Date | Time (-10) | Flight Rules | Wind Dir. | Speed | Type | Height AGL (ft) | Visibility | Temp (°C) | Temp (°F) | Dew Point (°C) | Dew Point (°F) | Rel. Humid. | Pressure | Density Altitude | Remarks |
|---|---|---|---|---|---|---|---|---|---|---|---|---|---|---|---|
| 06-सितम्बर | 11:00 | n/a | 150° | 3 kt | Missing | 26° | 78° | 21° | 69° | 74% | 1014 mb | 1,348 ft | |||
| 06-सितम्बर | 10:30 | n/a | 150° | 3 kt | Missing | 25° | 77° | 22° | 71° | 83% | 1014 mb | 1,228 ft | |||
| 06-सितम्बर | 10:00 | n/a | 160° | 3 kt | Missing | 24° | 75° | 22° | 71° | 89% | 1014 mb | 1,108 ft | |||
| 06-सितम्बर | 09:30 | n/a | 120° | 2 kt | Missing | 25° | 77° | 22° | 71° | 83% | 1014 mb | 1,228 ft | |||
| 06-सितम्बर | 09:00 | n/a | 140° | 2 kt | Missing | 24° | 75° | 22° | 71° | 89% | 1013 mb | 1,137 ft | |||
| 06-सितम्बर | 08:30 | n/a | 150° | 2 kt | Missing | 23° | 73° | 22° | 71° | 94% | 1013 mb | 1,017 ft | |||
| 06-सितम्बर | 08:00 | n/a | 160° | 2 kt | Missing | 23° | 73° | 22° | 71° | 94% | 1013 mb | 1,017 ft | |||
| 06-सितम्बर | 07:30 | n/a | 170° | 1 kt | Missing | 22° | 71° | 21° | 69° | 94% | 1013 mb | 897 ft | |||
| 06-सितम्बर | 07:00 | n/a | 170° | 2 kt | Missing | 21° | 69° | 21° | 69° | 100% | 1012 mb | 807 ft | |||
| 06-सितम्बर | 06:30 | n/a | 160° | 1 kt | Missing | 21° | 69° | 21° | 69° | 100% | 1012 mb | 807 ft | |||
| 06-सितम्बर | 06:00 | n/a | 150° | 1 kt | Missing | 21° | 69° | 21° | 69° | 100% | 1012 mb | 807 ft | |||
| 06-सितम्बर | 05:30 | n/a | 160° | 1 kt | Missing | 21° | 69° | 21° | 69° | 100% | 1012 mb | 807 ft | |||
| 06-सितम्बर | 05:00 | n/a | 180° | 3 kt | Missing | 21° | 69° | 21° | 69° | 100% | 1011 mb | 836 ft | |||
| 06-सितम्बर | 04:30 | n/a | 190° | 2 kt | Missing | 21° | 69° | 21° | 69° | 100% | 1011 mb | 836 ft | |||
| 06-सितम्बर | 04:00 | n/a | 180° | 2 kt | Missing | 21° | 69° | 21° | 69° | 100% | 1011 mb | 836 ft | |||
| 06-सितम्बर | 03:30 | n/a | 170° | 1 kt | Missing | 21° | 69° | 21° | 69° | 100% | 1012 mb | 807 ft | |||
| 06-सितम्बर | 03:00 | n/a | 150° | 1 kt | Missing | 21° | 69° | 21° | 69° | 100% | 1012 mb | 807 ft | |||
| 06-सितम्बर | 02:30 | n/a | 170° | 1 kt | Missing | 21° | 69° | 21° | 69° | 100% | 1012 mb | 807 ft | |||
| 06-सितम्बर | 02:00 | n/a | 250° | 1 kt | Missing | 21° | 69° | 21° | 69° | 100% | 1012 mb | 807 ft | |||
| 06-सितम्बर | 01:30 | n/a | 220° | 1 kt | Missing | 21° | 69° | 21° | 69° | 100% | 1013 mb | 777 ft | |||
| 06-सितम्बर | 01:00 | n/a | 290° | 1 kt | Missing | 21° | 69° | 21° | 69° | 100% | 1013 mb | 777 ft | |||
| 06-सितम्बर | 00:30 | n/a | 320° | 1 kt | Missing | 21° | 69° | 21° | 69° | 100% | 1013 mb | 777 ft | |||
| 06-सितम्बर | 00:00 | n/a | 290° | 1 kt | Missing | 21° | 69° | 20° | 68° | 94% | 1013 mb | 777 ft | |||
| 05-सितम्बर | 23:30 | n/a | 250° | 1 kt | Missing | 21° | 69° | 21° | 69° | 100% | 1013 mb | 777 ft |
लॉगिन
| Your browser is unsupported. अपना ब्राऊजर अपग्रेड करें |
